Weather in Luhansk

Ukraine / Luhansk Region     48°34′26″N   39°18′27″E
temp.,
°C
wind,
m/s
gust,
m/s
humid.,
%
clouds,
%
prec.,
mm/h
press.,
hPa
HPBL,
m
9 may, sun
sun900:00+13w3887100 2.7 1008268
03:00+9nw71387100 2.8 1010615
06:00+7nnw71191100 2.9 1011727
09:00+8nnw91176100 3.2 10141060
12:00+9nnw91270100 0.1 10151184
15:00+11nnw91156100 0.1 10171756
18:00+10nne5862100 0.1 10181437
21:00+8nw4971100 0.3 1021309
10 may, mon
mon1000:00+6nw51171100 0.0 1021422
03:00+5nw51177100 0.0 1022395
06:00+6nw61376100 0.0 1021562
09:00+9nnw91462100 0.0 10191443
12:00+9nnw81372100 0.3 10181234
15:00+8nnw91585100 3.6 10171289
18:00+8nnw101788100 3.3 10141133
21:00+7nnw111893100 6.8 1011890
11 may, tue
tue1100:00+10n111795100 6.2 1008963
03:00+8ne6119398 6.3 1010758
06:00+7ne61193100 0.1 1012736
09:00+8ne81186100 0.4 1013967
12:00+7ne71187100 0.4 10121259
15:00+6nne4693100 0.8 1012730
18:00+7se5993100 0.2 1015652
21:00+8ese61191100 0.8 1017567
12 may, wed
wed1200:00+7se71188100 0.0 1018677
03:00+7se71291100 0.1 1018642
06:00+7se61193100 0.6 1019556
09:00+8ese4890100 0.8 1020342
12:00+14ese7970100 0.1 10191330
15:00+18se7951100 0.2 10172037
18:00+17se586688 0.1 1017451
21:00+12se35867 0.1 101773
13 may, thu
thu1300:00+10ese33876 0.0 101747
03:00+9ese34855 0.0 101652
06:00+10ese25820 0.0 1017137
09:00+17ese57595 0.0 1016567
12:00+21ese6849100 0.0 10161290
15:00+22se7849100 0.0 10151321
18:00+20ese5964100 0.0 1015589
21:00+16ese3108373 0.0 1015190